Flag for Norway Weather past 2 weeks in Narvik, Norway

Now
32 °F

Light snow. Partly cloudy.


Feels Like: 32 °F
Forecast: 20 / 39 °F
Wind: No wind

Location: Evenes

Current Time: Apr 28, 2015 at 5:12:46 AM

Latest Report: Apr 28, 2015 at 4:20 AM


Visibility: 1 mi

Pressure: 29.62 "Hg

Humidity: 100%

Dew point: 32 °F

Location of NarvikLocation

Historic Weather in Narvik — Graph

°F

Narvik temperature yesterday

Maximum temperature yesterday: 41 °F (at 11:50 AM)
Minimum temperature yesterday: 32 °F (at 8:50 PM)
Average temperature yesterday: 37 °F

Past Weeks' High & Low Weather Summary

 TemperatureHumidityPressure
High48 °F (Apr 19, 12:20 PM)100% (Apr 13, 3:20 AM)30.18 "Hg (Apr 13, 3:20 AM)
Low23 °F (Apr 14, 5:50 AM)39% (Apr 26, 11:50 AM)29.18 "Hg (Apr 23, 7:50 AM)
Average38 °F74%29.75 "Hg
* Reported Apr 13 3:20 AM — Apr 28 3:50 AM, Narvik, Weather by CustomWeather, © 2015

Note: Actual official high and low records may vary slightly from our data, if they occured in-between our weather recording intervals... More about our weather records

Advertising

Narvik weather history for previous 24 hours

 ConditionsComfort  
Time TempWeatherWind HumidityBarometerVisibility
3:50 AM
Tue, Apr 28
32 °FLight snow. Passing clouds.1 mph100%29.62 "Hg1 mi
3:20 AM32 °FLight snow. Passing clouds.No wind100%29.62 "Hg1 mi
2:50 AM32 °FLight snow. Mostly cloudy.No wind100%29.62 "Hg1 mi
2:20 AM32 °FLight snow. Dense fog.No wind100%29.62 "Hg1 mi
1:50 AM32 °FLight rain. Dense fog.No wind100%29.62 "Hg2 mi
1:20 AM32 °FLight rain. Dense fog.No wind100%29.62 "Hg2 mi
12:50 AM32 °FSprinkles. Dense fog.No wind100%29.62 "Hg1 mi
11:50 PM
Mon, Apr 27
32 °FSprinkles. Dense fog.1 mph100%29.62 "Hg1 mi
10:50 PM32 °FSprinkles. Dense fog.No wind100%29.62 "Hg1 mi
9:50 PM32 °FSprinkles. Dense fog.No wind100%29.62 "Hg2 mi
8:50 PM32 °FLight rain. Fog.2 mph100%29.62 "Hg3 mi
7:50 PM34 °FSprinkles. Fog.3 mph93%29.62 "Hg3 mi
6:50 PM34 °FSprinkles. Fog.5 mph93%29.62 "Hg3 mi
5:50 PM34 °FSprinkles. Fog.5 mph93%29.62 "Hg3 mi
4:50 PM34 °FSnow flurries. Light fog.2 mph93%29.62 "Hg5 mi
3:50 PM37 °FSnow flurries. Light fog.3 mph81%29.65 "Hg6 mi
2:50 PM39 °FScattered showers. Overcast.7 mph61%29.62 "HgN/A
1:50 PM41 °FScattered showers. Overcast.5 mph53%29.62 "HgN/A
12:50 PM41 °FBroken clouds.7 mph49%29.62 "HgN/A
11:50 AM41 °FOvercast.6 mph49%29.62 "HgN/A
10:50 AM39 °FBroken clouds.9 mph56%29.62 "HgN/A
9:50 AM39 °FBroken clouds.8 mph48%29.62 "HgN/A
8:50 AM39 °FBroken clouds.7 mph48%29.62 "HgN/A
7:50 AM39 °FBroken clouds.8 mph52%29.62 "HgN/A
6:50 AM37 °FPartly sunny.9 mph52%29.62 "HgN/A
5:50 AM37 °FPartly sunny.10 mph52%29.62 "HgN/A
5:20 AM37 °FOvercast.10 mph52%29.62 "HgN/A
Weather by CustomWeather, © 2015

See weather overviewHow to use our weather pages